Location: Unspecified
(0.0000°N, 0.0000°E)
Time: 10:21:26
(UTC+02:00)

CZ-4B DEB - Visible Passes

Search period start: 21 April 2015 00:00
Search period end: 01 May 2015 00:00
Orbit: 490 x 498 km, 97.5° (Epoch: 20 April)

Date Brightness Start Highest point End Pass type
(mag) Time Alt. Az. Time Alt. Az. Time Alt. Az.
21 Apr 3.2 20:36:21 10° SSE 20:39:53 51° E 20:43:25 10° N visible
23 Apr 5.7 21:27:21 10° SSW 21:30:11 21° W 21:32:53 10° NW visible
24 Apr 4.1 21:04:58 10° S 21:08:29 47° W 21:11:58 10° NNW visible
25 Apr 3.0 20:43:09 10° SSE 20:46:46 68° E 20:50:22 10° N visible
26 Apr 4.1 20:21:50 10° SE 20:24:57 28° E 20:28:07 10° NNE visible
27 Apr 6.0 21:34:06 10° SW 21:36:32 17° W 21:38:50 10° WNW visible
28 Apr 4.6 21:11:11 10° S 21:14:35 37° W 21:17:57 10° NNW visible
29 Apr 3.0 20:48:58 10° SSE 20:52:35 86° E 20:56:13 10° N visible
30 Apr 3.8 20:27:14 10° SE 20:30:32 34° E 20:33:52 10° NNE visible
